Cloquet, MN

6:52 AM CDT on July 23, 2017 (GMT -0500)
Cloquet Carlton County

Weather History for KCOQ - December, 2012

Change the Weather History Date:

Wednesday, December 5, 2012

  Actual Average Record
Temperature  
Mean Temperature 20 °F -  
Max Temperature 35 °F 28 °F 42 °F (2001)
Min Temperature 8 °F 15 °F -7 °F (2000)
Degree Days  
Heating Degree Days 44    
Moisture  
Dew Point 10 °F    
Average Humidity 64    
Maximum Humidity 85    
Minimum Humidity 44    
Precipitation  
Precipitation 0.00 in - - ()
Sea Level Pressure  
Sea Level Pressure 30.14 in    
Wind  
Wind Speed 5 mph (SE)    
Max Wind Speed 12 mph    
Max Gust Speed 17 mph    
Visibility 10 miles    
Events      
Averages and records for this station are not official NWS values.
T = Trace of Precipitation, MM = Missing Value Source: NWS Daily Summary

Daily Weather History Graph

Daily Weather History Graph

Search for Another Location

Airport or City:

Trip Planner

Search our weather history database for the weather conditions in past years. The results will help you decide how hot, cold, wet, or windy it might be!

Date:

Astronomy

Dec. 05, 2012 Rise Set
Actual Time 7:39 AM CST 4:22 PM CST
Civil Twilight 7:04 AM CST 4:57 PM CST
Nautical Twilight 6:26 AM CST 5:35 PM CST
Astronomical Twilight 5:49 AM CST 6:12 PM CST
Moon 11:31 PM CST (12/5) 11:45 AM CST (12/5)
Length of Visible Light 9h 52m
Length of Day
8h 43m
Waning Gibbous, 59% of the Moon is Illuminated
Dec 5
Waning Gibbous
Dec 6
Last Quarter
Dec 13
New
Dec 19
First Quarter
Dec 28
Full

Hourly Weather History & Observations

Time (CST) Temp. Windchill Dew Point Humidity Pressure Visibility Wind Dir Wind Speed Gust Speed Precip Events Conditions
12:16 AM 10.4 °F 2.2 °F 6.8 °F 85% 30.36 in 10.0 mi WNW 4.6 mph - N/A   Clear
12:36 AM 10.4 °F 4.0 °F 6.8 °F 85% 30.36 in 10.0 mi WNW 3.5 mph - N/A   Clear
12:56 AM 10.4 °F 4.0 °F 6.8 °F 85% 30.36 in 10.0 mi NW 3.5 mph - N/A   Clear
1:16 AM 10.4 °F 4.0 °F 6.8 °F 85% 30.35 in 10.0 mi NW 3.5 mph - N/A   Clear
1:56 AM 10.4 °F 2.2 °F 5.0 °F 79% 30.36 in 10.0 mi NW 4.6 mph - N/A   Clear
2:16 AM 10.4 °F 2.2 °F 5.0 °F 79% 30.36 in 10.0 mi North 4.6 mph - N/A   Clear
2:36 AM 8.6 °F - 5.0 °F 85% 30.36 in 10.0 mi Calm Calm - N/A   Clear
2:56 AM 10.4 °F - 5.0 °F 79% 30.35 in 10.0 mi Calm Calm - N/A   Clear
3:16 AM 10.4 °F 4.0 °F 5.0 °F 79% 30.37 in 10.0 mi West 3.5 mph - N/A   Clear
3:36 AM 8.6 °F - 5.0 °F 85% 30.36 in 10.0 mi Calm Calm - N/A   Clear
3:56 AM 8.6 °F - 5.0 °F 85% 30.36 in 10.0 mi Calm Calm - N/A   Clear
4:15 AM 8.6 °F - 5.0 °F 85% 30.36 in 10.0 mi Calm Calm - N/A   Clear
4:36 AM 8.6 °F - 5.0 °F 85% 30.36 in 10.0 mi Calm Calm - N/A   Clear
4:56 AM 8.6 °F - 5.0 °F 85% 30.35 in 10.0 mi Calm Calm - N/A   Clear
5:15 AM 8.6 °F - 3.2 °F 79% 30.34 in 10.0 mi Calm Calm - N/A   Clear
5:36 AM 8.6 °F - 5.0 °F 85% 30.34 in 10.0 mi Calm Calm - N/A   Clear
5:56 AM 10.4 °F - 6.8 °F 85% 30.34 in 10.0 mi Calm Calm - N/A   Clear
6:16 AM 10.4 °F 4.0 °F 6.8 °F 85% 30.34 in 10.0 mi East 3.5 mph - N/A   Clear
6:36 AM 10.4 °F 4.0 °F 6.8 °F 85% 30.33 in 10.0 mi East 3.5 mph - N/A   Clear
6:56 AM 10.4 °F 4.0 °F 6.8 °F 85% 30.33 in 10.0 mi ESE 3.5 mph - N/A   Clear
8:36 AM 12.2 °F - 8.6 °F 85% 30.34 in 10.0 mi Calm Calm - N/A   Clear
8:56 AM 14.0 °F 8.2 °F 8.6 °F 79% 30.33 in 10.0 mi East 3.5 mph - N/A   Clear
9:16 AM 15.8 °F 8.6 °F 10.4 °F 79% 30.33 in 10.0 mi ESE 4.6 mph - N/A   Clear
9:36 AM 15.8 °F 10.2 °F 10.4 °F 79% - 10.0 mi ESE 3.5 mph - N/A   Clear
9:56 AM 17.6 °F 8.2 °F 12.2 °F 79% 30.31 in 10.0 mi ESE 6.9 mph - N/A   Clear
10:16 AM 19.4 °F 11.5 °F 12.2 °F 74% 30.32 in 10.0 mi SE 5.8 mph - N/A   Clear
10:35 AM 19.4 °F 9.5 °F 12.2 °F 74% 30.30 in 10.0 mi SE 8.1 mph - N/A   Clear
10:56 AM 19.4 °F 8.6 °F 12.2 °F 74% 30.28 in 10.0 mi SE 9.2 mph - N/A   Clear
11:16 AM 21.2 °F 10.9 °F 12.2 °F 68% 30.27 in 10.0 mi SE 9.2 mph - N/A   Clear
11:35 AM 21.2 °F 10.9 °F 12.2 °F 68% 30.25 in 10.0 mi SSE 9.2 mph - N/A   Clear
11:56 AM 23.0 °F 13.1 °F 12.2 °F 63% 30.24 in 10.0 mi SE 9.2 mph - N/A   Clear
12:16 PM 23.0 °F 13.1 °F 12.2 °F 63% 30.22 in 10.0 mi SE 9.2 mph - N/A   Clear
12:36 PM 24.8 °F 14.6 °F 12.2 °F 59% 30.20 in 10.0 mi SE 10.4 mph 17.3 mph N/A   Clear
12:56 PM 24.8 °F 16.1 °F 10.4 °F 54% 30.18 in 10.0 mi SE 8.1 mph - N/A   Clear
1:16 PM 24.8 °F 16.1 °F 12.2 °F 59% 30.17 in 10.0 mi ESE 8.1 mph - N/A   Clear
1:36 PM 26.6 °F 16.8 °F 12.2 °F 55% 30.16 in 10.0 mi SE 10.4 mph - N/A   Clear
1:56 PM 26.6 °F 18.2 °F 12.2 °F 55% 30.14 in 10.0 mi SE 8.1 mph 16.1 mph N/A   Clear
2:16 PM 26.6 °F 17.5 °F 12.2 °F 55% 30.12 in 10.0 mi ESE 9.2 mph - N/A   Clear
2:36 PM 26.6 °F 17.5 °F 12.2 °F 55% 30.10 in 10.0 mi ESE 9.2 mph 16.1 mph N/A   Clear
2:56 PM 26.6 °F 17.5 °F 12.2 °F 55% 30.08 in 10.0 mi ESE 9.2 mph - N/A   Clear
3:16 PM 28.4 °F 19.7 °F 12.2 °F 51% 30.08 in 10.0 mi ESE 9.2 mph - N/A   Mostly Cloudy
3:36 PM 28.4 °F 19.1 °F 12.2 °F 51% 30.06 in 10.0 mi ESE 10.4 mph - N/A   Overcast
3:56 PM 28.4 °F 19.1 °F 12.2 °F 51% 30.05 in 10.0 mi ESE 10.4 mph - N/A   Overcast
4:16 PM 28.4 °F 18.5 °F 12.2 °F 51% 30.04 in 10.0 mi ESE 11.5 mph - N/A   Overcast
4:36 PM 28.4 °F 18.5 °F 12.2 °F 51% 30.02 in 10.0 mi ESE 11.5 mph - N/A   Overcast
4:56 PM 28.4 °F 19.7 °F 12.2 °F 51% 30.01 in 10.0 mi ESE 9.2 mph - N/A   Mostly Cloudy
5:16 PM 28.4 °F 19.7 °F 12.2 °F 51% 29.99 in 10.0 mi ESE 9.2 mph 16.1 mph N/A   Mostly Cloudy
5:36 PM 28.4 °F 20.4 °F 12.2 °F 51% 29.99 in 10.0 mi ESE 8.1 mph - N/A   Mostly Cloudy
5:56 PM 28.4 °F 19.7 °F 12.2 °F 51% 29.97 in 10.0 mi ESE 9.2 mph - N/A   Mostly Cloudy
6:16 PM 28.4 °F 22.2 °F 12.2 °F 51% 29.96 in 10.0 mi ESE 5.8 mph - N/A   Mostly Cloudy
6:36 PM 28.4 °F 20.4 °F 12.2 °F 51% 29.95 in 10.0 mi ESE 8.1 mph - N/A   Scattered Clouds
6:56 PM 28.4 °F 20.4 °F 12.2 °F 51% 29.93 in 10.0 mi ESE 8.1 mph - N/A   Clear
7:16 PM 28.4 °F 19.7 °F 12.2 °F 51% 29.91 in 10.0 mi SE 9.2 mph - N/A   Clear
7:36 PM 30.2 °F 22.6 °F 12.2 °F 47% 29.90 in 10.0 mi SE 8.1 mph - N/A   Clear
7:56 PM 30.2 °F 21.9 °F 12.2 °F 47% 29.91 in 10.0 mi SSE 9.2 mph - N/A   Clear
8:16 PM 30.2 °F 22.6 °F 12.2 °F 47% 29.90 in 10.0 mi SSE 8.1 mph - N/A   Clear
8:36 PM 30.2 °F 22.6 °F 12.2 °F 47% 29.90 in 10.0 mi SSE 8.1 mph - N/A   Clear
8:56 PM 32.0 °F 24.2 °F 12.2 °F 44% 29.89 in 10.0 mi SSE 9.2 mph - N/A   Clear
9:16 PM 32.0 °F 24.2 °F 12.2 °F 44% 29.88 in 10.0 mi SSE 9.2 mph 17.3 mph N/A   Mostly Cloudy
9:36 PM 32.0 °F 24.2 °F 12.2 °F 44% 29.87 in 10.0 mi SSE 9.2 mph - N/A   Overcast
9:56 PM 32.0 °F 24.8 °F 12.2 °F 44% 29.86 in 10.0 mi SSE 8.1 mph - N/A   Overcast
10:16 PM 32.0 °F 24.8 °F 12.2 °F 44% 29.85 in 10.0 mi SSE 8.1 mph - N/A   Overcast
10:36 PM 33.8 °F 27.0 °F 14.0 °F 44% 29.83 in 10.0 mi SSE 8.1 mph - N/A   Overcast
10:56 PM 33.8 °F 27.0 °F 14.0 °F 44% 29.82 in 10.0 mi SSE 8.1 mph - N/A   Mostly Cloudy
11:16 PM 33.8 °F 26.4 °F 14.0 °F 44% 29.81 in 10.0 mi South 9.2 mph - N/A   Mostly Cloudy
11:36 PM 33.8 °F 27.0 °F 15.8 °F 48% 29.81 in 10.0 mi SSE 8.1 mph - N/A   Mostly Cloudy
11:56 PM 35.6 °F 29.2 °F 15.8 °F 44% 29.80 in 10.0 mi South 8.1 mph - N/A   Overcast